Location: Unspecified
(0.0000°N, 0.0000°E)
Time: 08:56:01
(UTC+00:00)

NOSS 2-1 (D) - Visible Passes

Search period start: 09 June 2026 00:00
Search period end: 19 June 2026 00:00
Orbit: 373 x 1665 km, 63.3° (Epoch: 8 June)

Date Brightness Start Highest point End Pass type
(mag) Time Alt. Az. Time Alt. Az. Time Alt. Az.
15 Jun 7.0 20:23:48 10° SSW 20:23:53 10° SSW 20:23:53 10° SSW visible
16 Jun 5.9 19:14:58 10° S 19:18:28 20° SSE 19:18:28 20° SSE visible
16 Jun 7.0 21:03:48 10° SW 21:04:15 11° SW 21:04:15 11° SW visible
17 Jun 4.2 19:52:36 10° SSW 19:59:54 77° ESE 20:00:23 72° ENE visible
18 Jun 5.5 18:43:50 10° S 18:49:27 23° ESE 18:53:52 10° ENE visible
18 Jun 5.9 20:32:29 10° SW 20:38:16 30° WNW 20:42:38 10° NNW visible
